Weather History for San Angelo, TX

Change the Weather History Date:

Friday, November 25, 2011

  Actual Average Record
Temperature  
Mean Temperature 62 °F 52 °F  
Max Temperature 69 °F 65 °F 90 °F (1965)
Min Temperature 54 °F 38 °F 19 °F (1996)
Degree Days  
Heating Degree Days 3 14  
Month to date heating degree days 166 236  
Since 1 July heating degree days 231 327  
Cooling Degree Days 0 0  
Month to date cooling degree days 40 15  
Year to date cooling degree days 3753 2499  
Growing Degree Days 12 (Base 50)    
Moisture  
Dew Point 52 °F    
Average Humidity 70    
Maximum Humidity 84    
Minimum Humidity 55    
Precipitation  
Precipitation 0.02 in 0.02 in 0.52 in (1986)
Month to date precipitation 0.32 1.00  
Year to date precipitation 8.24 20.26  
Snow  
Snow 0.00 in 0.00 in T in (2007)
Month to date snowfall 0.0 0.2  
Since 1 July snowfall 0.0 0.2  
Snow Depth 0.00 in    
Sea Level Pressure  
Sea Level Pressure 29.91 in    
Wind  
Wind Speed 12 mph (South)    
Max Wind Speed 25 mph    
Max Gust Speed 32 mph    
Visibility 10 miles    
Events Rain    
T = Trace of Precipitation, MM = Missing Value Source: NWS Daily Summary

Daily Weather History Graph

Daily Weather History Graph

Search for Another Location

Airport:

Trip Planner

Search our weather history database for the weather conditions in past years. The results will help you decide how hot, cold, wet, or windy it might be!

Date:

Astronomy

Nov. 25, 2011 Rise Set
Actual Time 7:17 AM CST 5:39 PM CST
Civil Twilight 6:51 AM CST 6:05 PM CST
Nautical Twilight 6:22 AM CST 6:35 PM CST
Astronomical Twilight 5:52 AM CST 7:04 PM CST
Moon 7:44 AM CST (11/25) 6:12 PM CST (11/25)
Length of Visible Light 11h 14m
Length of Day
10h 21m
New Moon, 0% of the Moon is Illuminated
Nov 25
New Moon
Dec 2
First Quarter
Dec 10
Full
Dec 17
Last Quarter
Dec 24
New

Hourly Weather History & Observations

Time (CST) Temp. Dew Point Humidity Pressure Visibility Wind Dir Wind Speed Gust Speed Precip Events Conditions
12:51 AM 60.8 °F 44.6 °F 55% 30.06 in 10.0 mi South 11.5 mph - N/A   Clear
1:51 AM 57.9 °F 45.0 °F 62% 30.00 in 10.0 mi South 9.2 mph - N/A   Clear
2:51 AM 57.0 °F 46.0 °F 67% 29.99 in 10.0 mi South 5.8 mph - N/A   Clear
3:51 AM 55.9 °F 46.9 °F 72% 29.98 in 10.0 mi SSE 4.6 mph - N/A   Clear
4:51 AM 55.0 °F 48.0 °F 77% 29.96 in 10.0 mi SSE 5.8 mph - N/A   Clear
5:09 AM 55.4 °F 48.2 °F 77% 30.00 in 10.0 mi SSE 5.8 mph - N/A   Mostly Cloudy
5:51 AM 57.9 °F 51.1 °F 78% 29.98 in 10.0 mi South 9.2 mph 17.3 mph N/A   Overcast
6:51 AM 60.1 °F 52.0 °F 75% 29.96 in 10.0 mi South 16.1 mph 20.7 mph N/A   Overcast
7:51 AM 61.0 °F 52.0 °F 72% 29.96 in 10.0 mi South 12.7 mph 24.2 mph N/A   Overcast
8:51 AM 61.0 °F 52.0 °F 72% 29.96 in 10.0 mi South 12.7 mph - N/A   Overcast
9:51 AM 62.6 °F 53.6 °F 72% 29.97 in 10.0 mi South 12.7 mph 23.0 mph N/A   Overcast
10:51 AM 64.9 °F 54.0 °F 68% 29.91 in 10.0 mi South 21.9 mph 28.8 mph N/A   Overcast
11:51 AM 66.9 °F 54.0 °F 63% 29.88 in 10.0 mi South 20.7 mph 31.1 mph N/A   Mostly Cloudy
12:51 PM 69.1 °F 55.0 °F 61% 29.84 in 10.0 mi South 20.7 mph 26.5 mph N/A   Mostly Cloudy
1:51 PM 68.0 °F 55.0 °F 63% 29.84 in 10.0 mi South 15.0 mph - N/A   Overcast
2:41 PM 68.0 °F 53.6 °F 60% 29.87 in 10.0 mi SSW 13.8 mph 26.5 mph N/A   Overcast
2:51 PM 68.0 °F 54.0 °F 61% 29.83 in 10.0 mi SW 16.1 mph 21.9 mph N/A   Overcast
3:51 PM 68.0 °F 55.4 °F 64% 29.87 in 10.0 mi South 9.2 mph - N/A   Overcast
4:51 PM 66.2 °F 53.6 °F 64% 29.85 in 10.0 mi South 6.9 mph - N/A   Scattered Clouds
5:51 PM 66.9 °F 55.0 °F 66% 29.83 in 10.0 mi South 10.4 mph - 0.00 in Rain Light Rain
6:51 PM 64.0 °F 55.9 °F 75% 29.82 in 10.0 mi SSE 12.7 mph - 0.01 in Rain Light Rain
7:51 PM 64.9 °F 55.9 °F 73% 29.83 in 10.0 mi South 9.2 mph - 0.00 in   Overcast
8:51 PM 62.6 °F 57.2 °F 82% 29.86 in 9.0 mi South 12.7 mph - N/A Rain Light Rain
9:51 PM 63.0 °F 57.0 °F 81% 29.86 in 10.0 mi SSW 15.0 mph 21.9 mph 0.00 in   Partly Cloudy
10:51 PM 61.0 °F 55.9 °F 83% 29.86 in 10.0 mi SSW 13.8 mph - N/A   Clear
11:51 PM 61.0 °F 54.0 °F 78% 29.86 in 10.0 mi SW 13.8 mph - N/A   Clear